Location: Ford County Road and Bridge Department
(37.7686°N, 99.9762°W)
Time: 03:28:00
(UTC+00:00)

Alouette 2 Rocket - Pass Details

Date: 18 January 2020
Orbit: 502 x 2650 km, 79.8° (Epoch: 18 February)

Event Time Altitude Azimuth Distance (km) Brightness Sun altitude
Rises 00:40:49 0° 350° (N) 2,962 7.0 -10.8°
Reaches altitude 10° 00:42:42 10° 351° (N) 2,194 6.3 -11.1°
Maximum altitude 00:47:32 86° 79° (E) 932 4.4 -12.0°
Drops below altitude 10° 00:55:05 10° 170° (S) 3,369 7.4 -13.5°
Sets 00:58:35 0° 171° (S) 4,686 8.1 -14.1°
